Погода в Хабаране

Шри-Ланка     8°02′26″N   80°45′22″E
темп.,
°C
ветер,
м/с
пор.,
м/с
влажн.,
%
обл.,
%
осадки,
мм/ч
давл.,
гПа
погр.,
м
22 мая, вс
вс2223:30+25юз6138210 0.0 1009917
02:30+25юз71482100 0.0 1007967
05:30+25юз6148689 0.0 1007947
08:30+28юз81471100 0.0 10081211
11:30+32зюз91352100 0.0 10071741
14:30+32зюз91351100 0.0 10041807
17:30+28зюз7137095 0.0 10051266
20:30+26юз7148430 0.0 1007987
23 мая, пн
пн2323:30+25юз7148687 0.0 1007978
02:30+25юз71486100 0.0 1005898
05:30+25юз71486100 0.0 1006829
08:30+28юз81372100 0.0 10071022
11:30+31зюз81256100 0.0 10071470
14:30+31зюз81157100 0.1 10051539
17:30+28зюз71271100 0.1 10061081
20:30+25юз71382100 0.0 1008832
24 мая, вт
вт2423:30+25юз71480100 0.0 1008834
02:30+25юз71479100 0.0 1006893
05:30+25юз6147999 0.0 1007832
08:30+28юз8136899 0.0 10091004
11:30+31юз8115778 0.0 10091251
14:30+31юз8115618 0.0 10071371
17:30+28юз7126811 0.0 1008982
20:30+26юз6147476 0.0 1010730
25 мая, ср
ср2523:30+26юз7147026 0.0 1010722
02:30+26юз7147491 0.0 1008746
05:30+26юз7147449 0.0 1008778
08:30+29юз81364100 0.0 1010932
11:30+33зюз7948100 0.0 10091495
14:30+33зюз8845100 0.0 10071809
17:30+29зюз71161100 0.0 10071054
20:30+26юз71480100 0.0 1009764
26 мая, чт
чт2623:30+25юз71482100 0.0 1010731
02:30+25юз7148472 0.0 1008796
05:30+25юз6148688 0.0 1009793
08:30+28зюз8126793 0.0 10101041
11:30+33зюз8104746 0.0 10091601
14:30+33зюз8104474 0.0 10061808
17:30+29зюз7126145 0.0 10061132
20:30+26юз714806 0.0 1008857